Weather History for Kearney, NE

Change the Weather History Date:

Monday, September 9, 2013

  Actual Average Record
Temperature  
Mean Temperature 82 °F 66 °F  
Max Temperature 99 °F 80 °F 102 °F (1931)
Min Temperature 64 °F 53 °F 39 °F (1943)
Degree Days  
Heating Degree Days 0 2  
Month to date heating degree days 16  
Since 1 July heating degree days 33  
Cooling Degree Days 17 4  
Month to date cooling degree days 42  
Year to date cooling degree days 820  
Growing Degree Days 31 (Base 50)    
Moisture  
Dew Point 55 °F    
Average Humidity 48    
Maximum Humidity 78    
Minimum Humidity 18    
Precipitation  
Precipitation 0.00 in - 1.76 in (2006)
Sea Level Pressure  
Sea Level Pressure 29.84 in    
Wind  
Wind Speed 13 mph (South)    
Max Wind Speed 20 mph    
Max Gust Speed 31 mph    
Visibility 10 miles    
Events      
T = Trace of Precipitation, MM = Missing Value Source: NWS Daily Summary

Daily Weather History Graph

Daily Weather History Graph

Search for Another Location

Airport:

Trip Planner

Search our weather history database for the weather conditions in past years. The results will help you decide how hot, cold, wet, or windy it might be!

Date:

Astronomy

Sep. 09, 2013 Rise Set
Actual Time 7:11 AM CDT 7:54 PM CDT
Civil Twilight 6:43 AM CDT 8:22 PM CDT
Nautical Twilight 6:10 AM CDT 8:54 PM CDT
Astronomical Twilight 5:36 AM CDT 9:28 PM CDT
Moon 11:36 AM CDT (9/9) 10:10 PM CDT (9/9)
Length of Visible Light 13h 38m
Length of Day
12h 43m
Waxing Crescent, 19% of the Moon is Illuminated
Sep 9
Waxing Crescent
Sep 12
First Quarter
Sep 19
Full
Sep 26
Last Quarter
Oct 4
New

Hourly Weather History & Observations

Time (CDT) Temp. Heat Index Dew Point Humidity Pressure Visibility Wind Dir Wind Speed Gust Speed Precip Events Conditions
12:15 AM 80.6 °F 80.8 °F 57.2 °F 45% 29.84 in 10.0 mi South 16.1 mph - N/A   Unknown
12:35 AM 78.8 °F - 57.2 °F 47% 29.85 in 10.0 mi South 13.8 mph - N/A   Unknown
12:55 AM 78.8 °F - 57.2 °F 47% 29.85 in 10.0 mi South 11.5 mph - N/A   Unknown
1:15 AM 75.2 °F - 57.2 °F 53% 29.85 in 10.0 mi South 11.5 mph - N/A   Unknown
1:35 AM 75.2 °F - 57.2 °F 53% 29.85 in 10.0 mi South 11.5 mph - N/A   Unknown
1:55 AM 75.2 °F - 57.2 °F 53% 29.85 in 10.0 mi South 11.5 mph - N/A   Unknown
2:15 AM 73.4 °F - 57.2 °F 57% 29.85 in 10.0 mi South 9.2 mph - N/A   Unknown
2:35 AM 73.4 °F - 57.2 °F 57% 29.84 in 10.0 mi South 11.5 mph - N/A   Unknown
2:55 AM 73.4 °F - 57.2 °F 57% 29.84 in 10.0 mi SSW 10.4 mph - N/A   Unknown
3:15 AM 75.2 °F - 57.2 °F 53% 29.84 in 10.0 mi SSW 11.5 mph - N/A   Unknown
3:35 AM 73.4 °F - 57.2 °F 57% 29.84 in 10.0 mi SSW 10.4 mph - N/A   Unknown
3:55 AM 71.6 °F - 57.2 °F 60% 29.84 in 10.0 mi SSW 9.2 mph - N/A   Unknown
4:15 AM 69.8 °F - 57.2 °F 64% 29.84 in 10.0 mi SSW 9.2 mph - N/A   Unknown
4:35 AM 69.8 °F - 57.2 °F 64% 29.84 in 10.0 mi SSW 8.1 mph - N/A   Unknown
4:55 AM 68.0 °F - 57.2 °F 68% 29.84 in 10.0 mi SSW 8.1 mph - N/A   Unknown
5:15 AM 68.0 °F - 57.2 °F 68% 29.84 in 10.0 mi SSW 9.2 mph - N/A   Unknown
5:35 AM 66.2 °F - 57.2 °F 73% 29.84 in 10.0 mi SSW 8.1 mph - N/A   Unknown
5:55 AM 64.4 °F - 57.2 °F 77% 29.84 in 10.0 mi SSW 8.1 mph - N/A   Unknown
6:15 AM 64.4 °F - 57.2 °F 77% 29.84 in 9.0 mi South 8.1 mph - N/A   Unknown
6:35 AM 64.4 °F - 57.2 °F 77% 29.84 in 10.0 mi SSW 5.8 mph - N/A   Unknown
6:55 AM 66.2 °F - 57.2 °F 73% 29.84 in 10.0 mi SSW 9.2 mph - N/A   Unknown
7:15 AM 64.4 °F - 57.2 °F 77% 29.84 in 10.0 mi SSW 8.1 mph - N/A   Unknown
7:35 AM 69.8 °F - 55.4 °F 60% 29.84 in 10.0 mi SSW 8.1 mph - N/A   Unknown
7:55 AM 68.0 °F - 55.4 °F 64% 29.84 in 10.0 mi SSW 9.2 mph - N/A   Unknown
8:15 AM 71.6 °F - 55.4 °F 57% 29.85 in 10.0 mi SSW 9.2 mph - N/A   Unknown
8:35 AM 73.4 °F - 55.4 °F 53% 29.85 in 10.0 mi SSW 9.2 mph - N/A   Unknown
8:55 AM 73.4 °F - 57.2 °F 57% 29.86 in 10.0 mi SW 10.4 mph - N/A   Unknown
9:15 AM 75.2 °F - 57.2 °F 53% 29.86 in 10.0 mi SW 13.8 mph - N/A   Unknown
9:35 AM 78.8 °F - 55.4 °F 44% 29.86 in 10.0 mi SSW 17.3 mph 23.0 mph N/A   Unknown
9:55 AM 80.6 °F 80.8 °F 57.2 °F 45% 29.86 in 10.0 mi SSW 16.1 mph - N/A   Unknown
10:15 AM 82.4 °F 82.0 °F 57.2 °F 42% 29.86 in 10.0 mi SSW 17.3 mph - N/A   Unknown
10:35 AM 82.4 °F 82.0 °F 57.2 °F 42% 29.85 in 10.0 mi SSW 15.0 mph - N/A   Unknown
10:55 AM 84.2 °F 83.5 °F 57.2 °F 40% 29.86 in 10.0 mi SSW 13.8 mph - N/A   Unknown
11:15 AM 86.0 °F 84.9 °F 57.2 °F 37% 29.85 in 10.0 mi SSW 15.0 mph - N/A   Unknown
11:35 AM 87.8 °F 86.5 °F 57.2 °F 35% 29.86 in 10.0 mi SSW 15.0 mph 21.9 mph N/A   Unknown
11:55 AM 89.6 °F 88.1 °F 57.2 °F 33% 29.86 in 10.0 mi SW 13.8 mph - N/A   Unknown
12:15 PM 89.6 °F 88.1 °F 57.2 °F 33% 29.86 in 10.0 mi SSW 15.0 mph - N/A   Unknown
12:35 PM 91.4 °F 89.9 °F 57.2 °F 31% 29.85 in 10.0 mi SSW 15.0 mph 21.9 mph N/A   Unknown
12:55 PM 91.4 °F 89.9 °F 57.2 °F 31% 29.84 in 10.0 mi SSW 16.1 mph - N/A   Unknown
1:15 PM 93.2 °F 92.6 °F 59.0 °F 32% 29.84 in 10.0 mi SW 13.8 mph - N/A   Unknown
1:35 PM 96.8 °F 95.1 °F 55.4 °F 25% 29.83 in 10.0 mi SSW 20.7 mph 26.5 mph N/A   Unknown
1:55 PM 96.8 °F 94.4 °F 53.6 °F 23% 29.83 in 10.0 mi SSW 19.6 mph 24.2 mph N/A   Unknown
2:15 PM 98.6 °F - 51.8 °F 21% 29.82 in 10.0 mi South 18.4 mph 28.8 mph N/A   Unknown
2:35 PM 98.6 °F - 51.8 °F 21% 29.82 in 10.0 mi SSW 19.6 mph 31.1 mph N/A   Unknown
2:55 PM 98.6 °F - 51.8 °F 21% 29.82 in 10.0 mi South 18.4 mph - N/A   Unknown
3:15 PM 98.6 °F - 50.0 °F 19% 29.81 in 10.0 mi South 21.9 mph - N/A   Unknown
3:35 PM 98.6 °F - 48.2 °F 18% 29.81 in 10.0 mi South 20.7 mph 27.6 mph N/A   Unknown
3:55 PM 98.6 °F - 48.2 °F 18% 29.80 in 10.0 mi South 18.4 mph 31.1 mph N/A   Unknown
4:15 PM 98.6 °F - 46.4 °F 17% 29.80 in 10.0 mi South 19.6 mph 28.8 mph N/A   Unknown
4:35 PM 96.8 °F - 48.2 °F 19% 29.80 in 10.0 mi South 17.3 mph 24.2 mph N/A   Unknown
4:55 PM 96.8 °F - 46.4 °F 18% 29.80 in 10.0 mi South 19.6 mph 26.5 mph N/A   Unknown
5:15 PM 96.8 °F - 46.4 °F 18% 29.80 in 10.0 mi South 21.9 mph 26.5 mph N/A   Unknown
5:35 PM 95.0 °F - 48.2 °F 20% 29.79 in 10.0 mi South 21.9 mph - N/A   Unknown
5:55 PM 93.2 °F - 50.0 °F 23% 29.80 in 10.0 mi South 16.1 mph 26.5 mph N/A   Unknown
6:15 PM 93.2 °F - 51.8 °F 24% 29.80 in 10.0 mi South 15.0 mph - N/A   Unknown
6:35 PM 91.4 °F 89.1 °F 53.6 °F 28% 29.80 in 10.0 mi South 13.8 mph - N/A   Unknown
6:55 PM 89.6 °F 87.3 °F 53.6 °F 29% 29.80 in 10.0 mi SSE 12.7 mph - N/A   Unknown
7:15 PM 87.8 °F 86.1 °F 55.4 °F 33% 29.80 in 10.0 mi SSE 8.1 mph - N/A   Unknown
7:35 PM 86.0 °F 84.5 °F 55.4 °F 35% 29.81 in 10.0 mi SSE 9.2 mph - N/A   Unknown
7:55 PM 84.2 °F 83.0 °F 55.4 °F 37% 29.81 in 10.0 mi SSE 11.5 mph - N/A   Unknown
8:15 PM 82.4 °F 81.7 °F 55.4 °F 39% 29.82 in 10.0 mi SSE 13.8 mph - N/A   Unknown
8:35 PM 82.4 °F 81.7 °F 55.4 °F 39% 29.82 in 10.0 mi SSE 11.5 mph - N/A   Unknown
8:55 PM 80.6 °F 80.5 °F 55.4 °F 42% 29.83 in 10.0 mi SSE 10.4 mph - N/A   Unknown
9:15 PM 80.6 °F 80.5 °F 55.4 °F 42% 29.84 in 10.0 mi SSE 12.7 mph - N/A   Unknown
9:35 PM 78.8 °F - 55.4 °F 44% 29.84 in 10.0 mi SSE 12.7 mph - N/A   Unknown
9:55 PM 78.8 °F - 55.4 °F 44% 29.84 in 10.0 mi SSE 11.5 mph - N/A   Unknown
10:15 PM 77.0 °F - 55.4 °F 47% 29.85 in 10.0 mi SSE 12.7 mph 17.3 mph N/A   Unknown
10:35 PM 77.0 °F - 55.4 °F 47% 29.85 in 10.0 mi SSE 12.7 mph - N/A   Unknown
10:55 PM 75.2 °F - 55.4 °F 50% 29.86 in 10.0 mi South 10.4 mph - N/A   Unknown
11:15 PM 75.2 °F - 55.4 °F 50% 29.86 in 10.0 mi South 13.8 mph - N/A   Unknown
11:35 PM 75.2 °F - 55.4 °F 50% 29.87 in 10.0 mi South 12.7 mph - N/A   Unknown
11:55 PM 75.2 °F - 57.2 °F 53% 29.87 in 10.0 mi South 12.7 mph - N/A   Unknown